sat.trackr.live / text

‹ back to catalog

BLACK KITE-2

NORAD 68474 · 2026-067BL

PAYLOAD ACTIVE UNKNOWN

§ Identity

Operator
Country
ROC
Launch date
2026-03-30
Launch site
AFWTR
Launch vehicle
Mass (kg)
RCS (m²)

External: N2YO · Heavens-Above · Gunter

§ Orbital elements

Epoch: 2026-09-20T03:07:54.939072Z

Period
96.45 min
Inclination
97.7652°
Eccentricity
0.0001082
Mean motion
14.92933807 rev/d
Perigee alt
588.0 km
Apogee alt
589.5 km
Semi-major
6,966.9 km
B*
1.1697e-4
RAAN
220.0820°
Arg perigee
340.9284°
Mean anomaly
19.1895°
Rev number
2,589

§ Raw data

BLACK KITE-21 68474U 26067BL  26263.13049698  .00001157  00000+0  11697-3 0  99992 68474  97.7652 220.0820 0001082 340.9284  19.1895 14.92933807 25895

JSON: /api/v1/satellites/68474 · /tle

For live sub-satellite position, see the globe view (requires WebGL).

§ Visibility from observer

Set your observer location to see the next 7 days of passes ≥ 10°. The values pass through the URL so the page stays shareable.

No JS? Fill the form by hand. The geolocation button needs JavaScript.